User: anonymous   Login
Location: Congrier
(47.8099°N, 1.1170°W)
Time: 13:12:44
(UTC+00:00)
Language:

Cosmos 1726 Rocket - Orbit

View from above orbital plane
View from above orbital plane
View from above satellite
View from above satellite

Ground track
Ground track

The orbit data is extracted from the following two-line orbital elements,

1 16496U 86006B   24107.20464933  .00001104  00000-0  12565-3 0  9999
2 16496  82.5278 190.6438 0020377 110.2667 310.7409 14.85189597 67456
Epoch (UTC): 16 April 2024 04:54:41
Eccentricity: 0.0020377
inclination: 82.5278°
perigee height: 599 km
apogee height: 627 km
right ascension of ascending node: 190.6438°
argument of perigee: 110.2667°
revolutions per day: 14.85189597
mean anomaly at epoch: 310.7409°
orbit number at epoch: 6745

The dashed part of the orbit path shows where the satellite is in the earth's shadow,  

DLR